www.pogodaiklimat.ru

Погода и климат >> Архив погоды >> Южная Африка >> Йестерплант


ПОГОДА в Йестерпланте

  • Прогноз погоды в Йестерпланте
  • Монитор погоды в Йестерпланте

АРХИВ ПОГОДЫ в Йестерпланте

Время (UTC), дата Ветер
(напр.,м/с)
 
Видим.   Явления Облачность Т
(С)
Тd
(С)
f
(%)
Тe
(С)
Тes
(С)
Комфортность P
(гПа)
Po
(гПа)
Тmin
(С)
Tmax
(С)
R
(мм)
R24
(мм)
S
(см)
15 9.06 ЮЗ 3 н/о н/о +26.7 +0.7 18 +25 +25 комфорт 974.3 +26.4 +30.8
18 9.06 З 2 5000 м ясно +18.8 +1.9 32 +19 +19 975.1 +18.8 +30.8 0.2
21 9.06 ЮЗ 2 н/о н/о +16.2 +3.7 43 +16 +16 977.0 +16.2 +30.8
00 10.06 Ю 1 н/о н/о +14.1 +3.6 49 +15 +15 979.8 +13.7 +30.8 0.2
03 10.06 СЗ 2 н/о н/о +12.9 +6.0 63 +13 +13 981.3 +12.8 +30.8
06 10.06 С 2 20 км 1/1 1500 м
[Cu hum]
+11.1 +4.8 65 +10 +10 983.3 +10.3
09 10.06 В 1 н/о н/о +19.5 +7.3 45 +21 +21 комфорт 983.6 +10.3 +19.5
15 10.06 З 2 н/о н/о +22.3 +7.4 38 +23 +23 комфорт 982.4 +22.2 +23.4
18 10.06 ЮВ 2 20 км ясно +14.8 +8.1 64 +15 +15 983.3 +14.8 +23.4
21 10.06 С 2 н/о н/о +11.6 +7.1 74 +11 +11 983.3 +11.6 +23.4
00 11.06 С 2 н/о н/о +9.5 +5.5 76 +8 +8 983.1 +9.5 +23.4
03 11.06 штиль 0 н/о н/о +6.7 +4.3 85 +6 +6 982.2 +6.5 +23.4
06 11.06 С 1 20 км 6/0
[Ci fib]
+7.6 +5.0 84 +7 +7 982.1 +5.8
09 11.06 В 2 н/о н/о +15.4 +7.5 59 +16 +16 980.9 +5.8 +15.4
12 11.06 В 1 20 км ясно +24.0 +5.1 29 +24 +30 комфорт 976.4 +5.8 +24.0
15 11.06 ЮЗ 3 н/о н/о +23.6 +2.6 25 +23 +23 комфорт 975.3 +23.0 +27.1
18 11.06 Ю 1 20 км ясно +16.7 +2.0 37 +18 +18 975.6 +16.0 +27.1
21 11.06 З 5 н/о н/о +19.4 -2.1 23 +19 +19 976.0 +14.5 +27.1
00 12.06 З 4 н/о н/о +17.0 -2.0 27 +17 +17 977.3 +14.5 +27.1
03 12.06 ЮЗ 2 н/о н/о +12.7 +3.1 52 +13 +13 979.2 +12.7 +27.1
06 12.06 З 4 20 км 3/1 1500 м
[Cu hum Ci fib]
+14.4 +6.3 58 +13 +13 981.1 +12.0
09 12.06 З 7 н/о н/о +19.0 +4.8 39 +19 +19 983.0 +12.0 +19.1
12 12.06 ЮЗ 9 20 км 6/6 1500 м
[Sc]
+18.1 +3.3 37 +17 +17 983.8 +12.0 +19.7
15 12.06 ЮЗ 5 н/о н/о +13.3 +4.2 54 +11 +11 987.7 +13.2 +19.7
18 12.06 С 1 20 км 8/8 1500 м
[Sc]
+11.5 +3.3 57 +12 +12 990.9 +10.0 +19.7
21 12.06 З 2 н/о н/о +9.6 +3.1 64 +8 +8 992.6 +9.6 +19.7
00 13.06 штиль 0 н/о н/о +8.5 +3.9 73 +8 +8 993.7 +8.3 +19.7
03 13.06 СВ 1 н/о н/о +5.5 +2.6 82 +4 +4 994.6 +5.1 +19.7
06 13.06 штиль 0 20 км ясно +4.6 +2.6 87 +4 +4 996.5 +2.2
09 13.06 В 2 н/о н/о +11.4 +4.2 61 +10 +10 996.0 +2.2 +11.4
12 13.06 В 2 20 км ясно +15.4 -0.6 33 +16 +22 992.9 +2.2 +15.6
15 13.06 ЮЗ 1 н/о н/о +16.0 -0.5 32 +17 +17 991.8 +15.3 +17.4
18 13.06 С 3 20 км ясно +8.9 +0.1 54 +7 +7 992.1 +8.9 +17.4
21 13.06 С 2 н/о н/о +5.9 -0.3 64 +4 +4 992.8 +5.9 +17.4
00 14.06 С 1 н/о н/о +3.5 -0.8 73 +2 +2 991.9 +1.2 +17.4
03 14.06 штиль 0 н/о н/о +2.1 -1.3 78 +1 +1 991.3 +1.2 +17.4
06 14.06 штиль 0 20 км ясно +1.9 -2.0 75 +1 +1 992.5 0.0
09 14.06 штиль 0 н/о н/о +11.8 -1.6 39 +12 +12 992.0 0.0 +12.0
12 14.06 ЮЗ 2 20 км ясно +17.5 -1.5 27 +18 +24 988.7 0.0 +17.5
15 14.06 СЗ 1 н/о н/о +18.7 -1.5 25 +20 +20 986.4 +17.3 +20.7
18 14.06 С 3 20 км ясно +10.0 -1.0 46 +8 +8 986.8 +10.0 +20.7
21 14.06 СВ 2 н/о н/о +6.0 -0.9 61 +5 +5 986.7 +5.4 +20.7
00 15.06 СВ 2 н/о н/о +4.0 -1.7 66 +2 +2 985.0 +3.1 +20.7
03 15.06 СВ 1 н/о н/о +2.9 -2.4 68 +2 +2 983.9 +2.6 +20.7
06 15.06 С 2 20 км 1/0
[Ci fib]
+2.6 -2.1 71 0 0 984.1 +0.8
09 15.06 ЮВ 1 н/о н/о +13.3 -1.3 36 +14 +14 985.1 +0.8 +13.3
12 15.06 ЮЗ 2 20 км ясно +21.8 -5.8 15 +20 +26 982.3 +0.8 +22.1
15 15.06 штиль 0 н/о н/о +21.9 -4.0 17 +21 +21 комфорт 981.3 +21.9 +23.9
18 15.06 СВ 2 20 км ясно +11.8 +2.5 53 +11 +11 984.3 +11.8 +23.9
21 15.06 С 2 н/о н/о +8.6 +3.4 70 +7 +7 985.0 +7.5 +23.9
00 16.06 С 2 н/о н/о +5.3 +1.0 74 +3 +3 984.6 +4.9 +23.9
03 16.06 С 2 н/о н/о +3.7 -0.3 75 +2 +2 984.1 +3.1 +23.9
06 16.06 С 2 20 км 1/0
[Ci fib]
+2.4 -0.6 81 -1 -1 984.6 +1.7
09 16.06 С 1 н/о н/о +12.8 +1.2 45 +13 +13 983.8 +1.7 +12.8
12 16.06 штиль 0 н/о н/о +22.7 -2.6 18 +21 +21 комфорт 980.7 +1.7 +22.7

 

Местоположение метеостанции Йестерплант (Южная Африка): широта -33.90 долгота 18.50 высота над уровнем моря 16 м.

В архиве по умолчанию представлена погода в Йестерпланте за последнюю неделю. Архивные данные за месяц целиком и за предыдущие месяцы, начиная с января 2011 года, Вы можете получить, выбрав интересующий диапазон дат из раскрывающегося списка и нажав кнопку "Ввод!".


*Определитесь, кто Вы:
робот инопланетянин человек

Внимание! Время в таблицах - всемирное. Для получения местного времени необходимо прибавить поправку, которая равна 2 ч.

Смотрите также архив погоды в соседних городах и на ближайших метеорологических станциях:

Погода в Кейптаун порту (Южная Африка) (6 км)
Погода в Кейптауне (Южная Африка) (9 км)
Погода в Кейптауне аэропорту (Южная Африка) (11 км)
Погода в Кейптауне аэропорту АМС (Южная Африка) (11 км)
Погода на Роббенэйланде (Южная Африка) (16 км)
Погода на Слангкопе (Южная Африка) (32 км)
Погода в Странде (Южная Африка) (42 км)
Погода в Парле (Южная Африка) (48 км)
Погода на Кейп-Пойнт (Южная Африка) (50 км)
Погода в Малмсбери (Южная Африка) (53 км)

Пояснения к столбцам:

Ветер - указаны скорость ветра в м/с - средняя за 10 мин, порывы в срок и между сроками (в фигурных скобках) и направление, откуда дует ветер: С - северный, СВ - северо-восточный, В - восточный, ЮВ - юго-восточный, Ю - южный, ЮЗ - юго-западный, З - западный, СЗ - северо-западный.
Видимость - горизонтальная дальность видимости в метрах или километрах. При видимости от 1 до 10 км при отсутствии осадков обычно наблюдается дымка, при ухудшении видимости до 1 км и менее - туман. В сухую погоду видимость может ухудшаться дымом, пылью или мглою.
Явления - указаны атмосферные явления, наблюдавшиеся в срок или в последний час перед сроком; фигурными скобками обозначены явления, наблюдавшиеся между сроками (за 1-3 часа до срока); квадратными скобками обозначены град или гололедные отложения с указанием их диаметра в мм.
Облачность - указаны через наклонную черту общая и нижняя облачность в баллах и высота нижней границы облаков в метрах; квадратными скобками обозначены формы облаков: Ci - перистые, Cs - перисто-слоистые, Cc - перисто-кучевые, Ac - высококучевые, As - высокослоистые, Sc - слоисто-кучевые, Ns - слоисто-дождевые, Cu - кучевые, Cb - кучево-дождевые. Подробнее классификацию облаков см. в Атласе облаков (PDF).
T - Температура воздуха - температура, измеренная на высоте 2 м над землей.
Td - Температура точки росы - температура, при понижении до которой содержащийся в воздухе водяной пар достигнет насыщения.
f - Относительная влажность воздуха - влажноcть воздуха, измеренная на высоте 2 м над землей.
Te - Эффективная температура - температура, которую ощущает одетый по сезону человек в тени. Характеристика душности погоды. При расчете учитывается влияние влажности воздуха и скорости ветра на теплоощущения человека.
Tes - Эффективная температура на солнце - температура, которую ощущает человек, с поправкой на солнечный нагрев. Характеристика знойности погоды. Зависит от высоты солнца над горизонтом, облачности и скорости ветра. Ночью, в пасмурную погоду, а также при ветре 12 м/с и более поправка равна нулю.
P - Атмосферное давление - приведенное к уровню моря атмосферное давление.
Po - Атмосферное давление - измеренное на уровне метеостанции атмосферное давление.
Tmin - Минимальная температура - минимум температуры воздуха на высоте 2 м над землей.
Tmax - Максимальная температура - максимум температуры воздуха на высоте 2 м над землей.
R - Количество осадков - Количество выпавших осадков за период времени, мм. При наведении курсора мыши на число - период времени, за который выпало указанное количество осадков.
R24 - Количество осадков - Количество выпавших осадков за 24 часа, мм.
S - Снежный покров - Высота снежного покрова, см. При наведении курсора мыши на число - состояние снежного покрова и степень покрытия местности в баллах.